Temperature
30 26 26 26 27 27 28 28 28 28 29 28 26 26 26 26 26 25 25 24 24 24 24 24 23 23 22 22 21 21 21 20 20 20 19 19 19 19 19 18 18 18 18 18
26 26 27 28 29 29 28 27 28 29 29 28 26 25 25 25 25 25 25 24 24 24 24 24 23 23 23 22 22 21 21 21 20 20 20 19 19 19 19 19 18 18 18 18
26 27 29 30 29 29 28 28 28 28 28 27 26 24 24 25 25 25 25 25 24 24 24 24 23 23 23 23 22 22 21 21 20 20 20 19 19 19 19 19 19 19 18 18
26 28 29 29 29 29 28 29 29 29 26 25 25 23 23 23 24 24 24 24 24 24 24 24 24 23 23 23 23 22 22 21 20 20 20 19 19 19 19 19 19 19 18 18
26 28 29 29 29 30 29 29 29 28 26 24 24 23 23 23 23 23 24 24 25 25 24 24 24 24 24 23 23 22 22 21 21 20 20 20 19 19 19 19 19 19 18 18
27 28 29 29 30 30 30 28 27 24 23 23 24 23 23 22 23 24 24 25 25 24 24 24 24 24 24 23 23 22 22 21 21 20 20 20 20 20 19 19 19 19 18 18
27 28 29 30 29 29 28 24 23 24 22 22 23 23 22 24 24 24 24 25 25 25 24 24 24 24 23 23 23 22 22 21 21 20 20 20 20 20 19 19 19 19 19 19
25 25 27 29 28 27 27 24 23 24 23 22 23 23 23 24 25 26 25 25 25 25 24 24 24 24 23 23 23 22 22 22 21 21 20 20 20 20 19 19 19 19 19 19
24 25 27 29 29 28 28 25 23 22 22 22 22 23 23 24 24 24 24 24 24 24 24 24 24 24 23 23 23 22 22 22 21 21 21 20 20 20 19 19 19 19 19 19
25 25 26 28 29 29 27 26 22 22 22 22 22 23 22 23 23 23 23 23 24 24 24 23 23 23 23 23 23 22 22 22 21 21 21 20 20 20 20 19 19 19 19 19
24 24 25 26 27 27 27 26 22 20 20 21 21 22 23 23 23 23 23 24 23 23 23 23 23 23 23 23 22 22 22 21 21 21 21 20 20 20 20 19 19 19 19 19
23 21 22 24 26 27 27 25 22 23 22 20 21 22 24 23 23 23 23 23 23 23 23 23 24 23 22 22 22 22 22 21 21 21 20 20 20 20 19 19 19 19 19 18
23 21 22 23 24 25 26 26 23 21 20 20 21 22 23 22 23 23 23 23 22 23 23 23 23 22 22 22 21 21 21 21 21 21 20 20 20 19 19 19 19 19 19 18
23 20 21 22 23 24 25 26 25 22 21 21 21 22 22 22 21 21 22 21 21 22 22 22 22 22 22 21 21 21 21 20 20 20 20 20 20 19 19 19 19 18 18 18
21 21 23 23 24 25 25 26 26 24 22 22 22 22 22 21 21 21 21 20 20 20 21 21 21 21 21 21 21 20 20 20 20 20 20 20 20 19 19 18 18 18 18 18
19 21 22 22 24 24 25 25 25 25 24 23 22 22 21 21 21 21 20 20 20 20 20 20 21 21 21 21 21 20 20 20 20 20 20 19 19 19 18 18 18 18 18 18
18 19 20 20 22 23 22 23 24 24 24 23 22 21 20 20 20 20 20 20 20 20 20 20 20 21 21 20 20 20 20 20 20 19 19 19 18 18 18 18 18 17 17 18
19 17 16 18 21 22 21 22 23 23 22 22 21 20 21 20 20 20 20 20 20 20 20 20 20 20 21 20 20 20 19 19 19 19 19 19 18 18 18 18 17 17 17 17
18 18 17 17 19 20 21 22 22 21 20 20 20 20 20 20 20 19 20 20 20 20 20 20 20 20 20 20 20 19 19 19 19 18 18 18 18 18 18 18 17 17 17 17
17 16 17 17 19 20 20 21 22 21 19 19 19 19 19 19 17 17 19 20 20 20 20 20 20 20 20 20 19 19 19 18 18 18 18 18 18 18 18 18 17 17 17 17
17 17 17 17 18 18 19 20 21 19 18 18 19 19 19 18 18 19 19 19 19 19 19 19 19 19 19 19 19 19 18 18 18 18 18 18 18 17 17 17 17 17 17 16
16 16 16 15 16 17 18 18 18 17 18 18 18 19 18 19 19 19 19 19 19 18 18 19 18 18 18 18 18 18 18 18 18 18 18 17 17 17 17 17 16 16 16 16
15 15 14 15 15 16 18 17 18 18 18 18 18 18 18 18 18 18 18 18 18 18 18 18 17 17 17 17 17 17 17 17 17 17 17 17 17 17 16 16 16 16 16 15
16 15 14 14 15 16 17 18 18 18 18 18 18 17 18 18 17 17 17 17 17 17 17 17 17 17 17 16 16 16 17 17 16 16 16 16 16 16 16 16 15 15 15 15
15 15 14 14 15 16 17 17 17 18 17 17 17 17 17 17 17 17 17 17 16 16 16 16 16 16 16 16 16 16 16 16 16 16 16 15 15 15 15 15 15 15 15 15
14 14 14 14 15 14 16 17 17 17 17 17 17 16 17 16 16 16 16 16 16 16 15 15 15 15 15 15 15 15 15 15 15 15 15 15 15 15 14 14 14 14 14 14
Wind_Speed
4 2 4 8 7 8 6 5 5 6 5 5 6 6 9 10 12 12 12 11 12 13 12 12 13 13 12 10 10 10 9 8 6 4 4 4 3 3 3 3 6 7 8 7
5 5 10 8 5 4 4 3 4 4 3 4 5 4 6 8 11 13 14 13 12 10 10 12 12 12 13 12 11 10 10 9 8 6 4 3 3 3 3 2 4 6 7 7
8 10 7 5 5 4 4 6 7 4 2 5 7 2 3 4 4 5 8 10 12 14 15 14 14 13 13 13 13 12 10 9 9 7 4 3 2 1 1 1 2 4 6 7
7 9 6 6 6 5 6 6 6 4 4 1 4 3 6 6 6 8 8 9 12 13 13 13 14 14 15 14 13 11 10 10 9 8 7 6 5 4 5 3 3 3 5 5
7 6 5 6 8 5 7 5 2 3 5 3 2 4 5 4 7 10 11 12 13 13 13 14 15 15 14 14 12 11 10 9 9 9 9 7 5 4 3 3 3 3 3 4
9 7 6 7 7 6 3 3 5 4 5 1 5 5 5 6 10 10 10 11 11 11 11 12 13 11 11 11 11 10 10 9 9 9 9 8 8 6 5 4 4 3 2 2
7 8 6 3 4 6 3 5 4 4 4 5 4 3 7 7 7 9 10 10 10 10 9 10 11 12 11 12 11 10 10 9 8 9 8 8 9 8 8 6 6 5 3 3
4 7 7 4 7 6 4 10 8 5 5 5 3 3 6 5 2 4 5 6 7 9 9 10 11 11 11 11 11 10 10 9 8 8 7 7 7 6 5 6 5 5 5 5
7 7 7 6 5 8 5 5 10 8 3 1 3 3 5 2 3 3 4 4 5 7 9 9 10 10 9 10 10 11 11 9 9 8 7 6 6 6 6 6 6 5 4 4
9 5 7 6 3 1 7 8 6 6 5 2 3 3 5 5 4 4 5 6 6 6 8 8 8 8 8 8 8 8 9 10 9 8 8 7 6 6 6 5 6 5 5 5
7 6 7 4 1 4 0 3 5 5 7 7 4 6 7 10 9 9 8 9 9 8 9 9 8 8 7 7 9 9 8 8 7 8 7 7 6 6 6 5 6 6 5 5
4 6 4 7 6 4 5 5 7 5 4 6 5 6 5 9 9 9 8 8 8 7 8 9 9 9 7 7 7 8 8 7 7 7 6 6 6 6 6 6 6 5 5 5
4 6 2 7 7 6 2 1 5 6 5 5 5 5 1 4 6 7 9 9 8 8 7 6 7 8 8 7 5 6 7 7 5 5 5 5 5 6 7 7 6 5 5 5
4 5 6 7 7 3 4 4 1 6 4 4 6 5 2 5 7 7 8 9 8 8 7 7 6 5 5 5 5 4 5 6 6 6 6 6 6 6 6 6 6 5 5 4
5 4 2 3 3 1 2 4 2 2 7 7 7 7 7 8 9 9 10 10 9 8 7 7 6 5 4 4 4 4 5 5 6 6 6 7 6 5 5 5 5 5 5 5
5 3 3 4 4 5 4 5 3 0 3 6 7 3 4 7 8 9 10 11 9 8 7 7 6 5 4 4 4 4 4 5 5 6 6 5 5 5 6 5 5 5 5 5
3 4 3 2 5 5 4 4 1 2 0 6 6 6 7 8 9 9 9 9 9 7 7 6 5 5 5 4 5 5 4 4 5 5 5 6 6 6 6 6 6 7 6 5
4 4 3 1 4 1 6 3 4 6 6 3 6 6 8 10 9 8 8 9 7 6 6 5 4 4 3 3 3 3 3 4 5 4 5 5 6 6 5 6 7 7 6 6
6 6 3 3 1 2 5 5 3 4 5 5 6 7 7 7 9 6 4 6 7 5 5 4 4 4 3 3 3 3 3 3 3 4 4 5 6 7 7 8 8 6 6 6
6 6 5 3 3 3 5 8 4 7 4 6 5 6 6 5 5 1 2 4 5 4 3 3 3 2 2 2 3 3 3 3 4 5 5 5 5 6 7 7 7 6 6 6
4 4 3 3 2 3 6 8 5 5 3 3 4 4 4 3 4 4 4 4 4 4 3 3 3 2 2 2 3 3 3 4 5 4 4 4 5 5 6 5 5 4 5 5
3 3 2 3 2 4 7 5 4 4 1 3 5 5 5 5 5 5 4 4 4 3 3 3 3 1 0 1 2 2 3 4 3 3 3 4 4 4 3 4 4 4 5 5
2 4 4 4 4 3 2 4 3 4 5 5 6 5 5 5 4 4 3 3 3 2 1 2 3 2 2 2 0 2 3 2 2 2 3 3 3 2 3 4 5 5 5 5
4 3 3 3 1 3 5 5 4 6 6 5 6 6 5 4 4 3 3 2 2 1 1 1 2 2 2 3 2 1 2 2 2 2 3 3 3 3 2 3 4 4 5 5
2 2 3 2 0 3 5 4 4 6 6 6 6 6 5 4 3 3 2 1 1 1 1 1 1 1 1 2 2 3 2 1 1 2 3 3 3 3 3 2 1 3 4 6
2 2 3 3 3 2 2 0 3 5 4 4 4 4 3 3 1 2 1 1 1 1 1 1 0 1 2 2 3 3 2 1 1 1 2 3 3 3 4 4 2 3 1 3
Wind_Direction
323 52 254 242 216 202 204 218 235 240 208 157 165 178 184 183 172 174 175 174 176 186 182 174 173 171 167 167 168 168 166 171 162 156 154 158 176 186 185 191 187 183 182 176
352 274 245 240 245 218 210 217 248 270 195 143 137 168 183 190 185 179 176 175 181 184 179 176 174 172 172 174 176 174 173 175 173 173 169 166 166 179 185 190 184 186 182 180
223 242 255 257 256 255 245 201 217 213 86 84 99 44 200 205 188 187 182 179 176 182 182 180 178 177 176 179 181 183 181 179 179 171 153 141 109 89 131 197 199 200 187 184
239 246 256 267 259 231 258 234 209 186 119 197 134 184 243 204 196 203 200 194 193 186 181 182 183 180 183 186 183 180 179 180 181 171 165 166 173 186 203 196 195 202 189 187
245 247 248 253 253 234 237 241 199 162 132 103 62 140 261 185 201 217 211 202 195 189 184 184 188 187 186 185 182 181 177 180 181 177 176 175 181 191 192 180 182 199 205 202
247 254 226 232 258 247 230 26 24 57 79 83 230 164 241 211 205 212 210 207 195 185 188 188 186 180 181 179 178 176 175 180 180 178 176 177 180 183 178 182 185 198 206 214
287 287 269 233 277 312 78 84 21 356 14 245 252 163 234 237 214 197 192 198 191 182 178 177 175 172 174 174 174 175 173 178 179 179 182 183 185 182 185 187 190 191 196 209
223 276 267 240 204 211 190 143 163 199 213 260 315 223 249 245 236 170 165 168 170 173 175 180 174 170 170 171 171 172 174 177 177 180 187 188 186 184 190 191 189 195 202 209
191 248 272 263 228 173 178 178 168 145 163 163 278 286 326 18 84 90 110 126 151 163 168 175 167 161 163 167 172 174 173 175 179 182 184 188 189 189 192 194 189 193 200 205
171 233 277 284 331 258 167 158 102 123 154 207 279 251 213 207 164 142 144 151 150 150 151 156 161 162 160 164 170 171 175 181 184 184 188 193 193 192 192 191 196 198 204 204
159 186 286 340 211 233 252 116 117 126 151 159 208 259 218 190 180 169 164 156 152 152 149 151 158 160 159 165 170 173 176 178 182 187 192 195 197 198 194 196 203 204 205 196
154 144 240 262 258 215 179 180 146 157 205 163 164 256 249 187 175 160 153 138 138 143 146 152 154 152 155 163 171 174 177 179 184 187 189 196 199 197 197 203 204 198 200 198
119 112 77 338 342 2 38 126 147 139 130 149 160 245 297 147 144 143 136 129 128 127 128 133 139 152 161 162 166 177 181 183 181 178 182 191 199 200 201 202 198 194 197 199
108 109 156 192 221 261 313 314 83 121 145 182 196 189 169 152 145 138 129 126 126 125 129 129 136 146 154 161 167 185 185 183 181 182 188 197 207 209 203 194 188 191 194 195
80 104 142 207 233 263 309 311 342 159 180 177 191 177 187 171 155 146 133 127 120 120 126 130 133 137 137 148 162 179 192 190 186 186 196 204 208 206 186 181 179 183 189 195
56 90 57 4 9 30 1 339 347 279 163 151 138 166 182 150 125 122 134 135 134 137 142 142 138 139 151 157 163 171 195 193 187 192 200 201 201 199 185 183 176 176 188 188
48 81 71 318 329 34 347 313 18 17 279 149 163 186 149 126 130 140 137 134 141 149 148 149 157 165 172 176 171 175 186 181 191 200 204 203 198 195 191 188 183 189 193 189
120 92 111 63 36 206 245 290 86 76 35 68 123 132 139 139 138 129 127 134 139 145 150 161 166 167 183 184 163 160 165 175 189 199 201 199 200 201 198 191 194 198 194 191
134 133 114 109 140 268 304 338 16 91 28 22 103 109 109 112 90 73 95 125 135 137 143 159 177 175 180 180 174 161 179 185 186 204 209 202 198 199 201 203 204 197 191 195
67 98 118 127 145 213 270 313 327 90 34 352 72 101 118 101 106 178 137 112 105 97 107 131 148 141 168 203 179 165 189 195 207 215 216 208 203 206 205 206 205 199 189 192
49 49 109 145 172 260 289 317 26 95 213 328 66 85 103 121 162 172 135 107 98 88 95 113 112 126 189 188 167 181 203 222 226 217 210 208 210 208 204 200 201 193 186 182
147 132 150 135 152 254 315 22 84 168 170 66 69 81 89 100 103 110 113 109 102 89 79 95 96 65 351 152 159 192 228 238 232 211 213 219 218 213 203 187 186 181 179 182
107 173 166 157 187 237 28 89 114 120 91 74 69 64 80 91 94 100 100 100 101 99 93 95 99 52 14 4 130 216 250 249 222 210 223 227 224 215 189 177 182 183 175 187
356 41 83 71 50 58 59 66 70 81 83 77 76 74 75 94 98 91 90 75 67 49 58 89 95 63 7 347 350 299 257 225 195 213 223 212 198 195 195 184 181 182 186 188
320 37 63 75 17 44 38 44 70 75 70 62 58 71 77 79 90 109 117 113 94 23 12 90 117 134 288 311 324 317 290 219 208 239 227 210 194 180 170 162 178 186 195 193
313 147 142 203 228 177 234 42 70 69 56 53 59 55 61 75 116 103 116 148 132 110 67 58 15 291 295 311 317 318 311 267 208 249 240 213 196 174 164 158 106 38 139 156
Height
1488 1496 1503 1499 1496 1498 1501 1506 1507 1500 1493 1499 1505 1508 1509 1510 1512 1514 1516 1518 1520 1522 1524 1526 1529 1532 1534 1536 1538 1539 1541 1542 1544 1545 1546 1547 1547 1548 1549 1549 1550 1550 1550 1551
1496 1500 1491 1487 1488 1492 1498 1505 1504 1496 1491 1499 1507 1510 1508 1509 1509 1509 1511 1514 1517 1520 1522 1525 1527 1530 1532 1534 1536 1538 1539 1541 1542 1544 1545 1546 1547 1547 1548 1548 1548 1549 1549 1549
1498 1492 1484 1486 1489 1493 1496 1501 1500 1500 1496 1500 1509 1519 1514 1511 1511 1512 1512 1512 1513 1516 1518 1521 1524 1526 1529 1532 1534 1536 1537 1539 1540 1542 1544 1545 1546 1546 1547 1547 1547 1547 1548 1548
1490 1483 1483 1486 1488 1490 1499 1488 1489 1494 1507 1518 1513 1537 1520 1513 1511 1510 1510 1511 1511 1513 1515 1518 1521 1523 1526 1529 1532 1534 1536 1537 1539 1540 1541 1542 1543 1544 1544 1545 1546 1546 1546 1546
1488 1481 1482 1486 1483 1482 1487 1481 1485 1491 1504 1517 1517 1530 1525 1513 1513 1508 1505 1505 1507 1509 1511 1514 1517 1520 1523 1527 1529 1532 1534 1535 1537 1538 1539 1541 1541 1542 1543 1544 1544 1544 1545 1545
1480 1475 1476 1477 1474 1475 1477 1483 1490 1500 1513 1532 1521 1527 1528 1513 1506 1502 1500 1502 1503 1506 1509 1512 1515 1519 1522 1525 1527 1530 1531 1533 1534 1536 1537 1538 1539 1540 1541 1542 1542 1543 1543 1543
1485 1477 1471 1471 1477 1476 1480 1503 1525 1529 1540 1536 1517 1521 1521 1499 1492 1493 1494 1497 1500 1503 1506 1509 1513 1516 1519 1523 1525 1528 1529 1530 1532 1534 1535 1536 1537 1538 1539 1540 1540 1541 1541 1541
1496 1495 1474 1469 1474 1481 1483 1499 1526 1538 1541 1533 1518 1521 1509 1492 1489 1489 1491 1493 1496 1500 1503 1506 1509 1513 1517 1520 1523 1525 1527 1528 1530 1531 1533 1534 1535 1536 1537 1538 1539 1539 1539 1540
1493 1492 1469 1464 1464 1470 1481 1491 1495 1517 1524 1533 1527 1515 1502 1491 1491 1491 1491 1493 1495 1498 1501 1504 1508 1511 1515 1519 1521 1523 1525 1526 1527 1529 1530 1532 1533 1534 1535 1536 1536 1537 1537 1538
1477 1487 1473 1464 1462 1463 1469 1478 1499 1516 1533 1540 1530 1521 1515 1500 1496 1493 1492 1492 1495 1497 1500 1504 1506 1509 1513 1516 1519 1522 1523 1524 1525 1526 1528 1529 1530 1531 1532 1533 1534 1534 1535 1535
1469 1485 1481 1473 1473 1475 1474 1480 1494 1511 1516 1533 1540 1526 1493 1491 1489 1489 1489 1491 1493 1496 1499 1501 1505 1509 1512 1514 1517 1519 1520 1521 1523 1524 1526 1527 1528 1528 1529 1530 1531 1532 1532 1532
1467 1482 1491 1479 1466 1462 1467 1475 1489 1507 1514 1519 1526 1519 1482 1482 1483 1485 1488 1490 1493 1496 1497 1500 1502 1505 1509 1512 1514 1516 1517 1519 1520 1522 1523 1524 1525 1525 1526 1527 1528 1529 1529 1530
1466 1483 1498 1494 1485 1472 1471 1471 1478 1491 1504 1516 1522 1512 1483 1483 1485 1486 1488 1491 1493 1495 1497 1500 1503 1505 1507 1509 1512 1513 1515 1516 1518 1519 1520 1521 1522 1522 1523 1523 1525 1526 1527 1527
1461 1480 1493 1500 1494 1481 1477 1473 1474 1487 1505 1509 1506 1501 1490 1486 1486 1487 1489 1491 1493 1495 1497 1500 1502 1503 1506 1508 1510 1511 1513 1514 1515 1517 1518 1518 1518 1519 1519 1519 1520 1522 1523 1524
1463 1479 1478 1478 1474 1472 1473 1473 1472 1479 1486 1496 1494 1493 1489 1485 1485 1487 1488 1491 1494 1496 1498 1499 1501 1503 1505 1507 1509 1510 1511 1513 1513 1514 1515 1515 1515 1516 1516 1516 1517 1519 1520 1521
1468 1477 1477 1479 1472 1472 1474 1471 1470 1473 1475 1481 1484 1489 1482 1482 1484 1486 1488 1490 1493 1496 1497 1499 1500 1502 1503 1505 1507 1508 1509 1510 1511 1511 1511 1511 1512 1513 1513 1513 1514 1516 1517 1517
1475 1479 1488 1491 1479 1477 1488 1477 1473 1474 1472 1475 1485 1484 1480 1483 1484 1486 1488 1490 1492 1494 1496 1498 1499 1501 1502 1504 1504 1505 1507 1508 1509 1509 1509 1508 1509 1509 1510 1511 1511 1513 1514 1514
1475 1484 1493 1495 1490 1500 1490 1472 1469 1473 1475 1473 1475 1477 1478 1479 1483 1486 1487 1489 1492 1494 1496 1497 1498 1499 1501 1502 1502 1503 1504 1506 1506 1506 1506 1506 1506 1507 1507 1508 1508 1509 1510 1511
1468 1479 1492 1500 1501 1496 1483 1474 1473 1477 1484 1478 1477 1478 1481 1481 1483 1487 1489 1489 1490 1492 1493 1495 1496 1497 1498 1499 1499 1500 1501 1502 1503 1503 1503 1503 1503 1504 1504 1504 1505 1506 1507 1507
1471 1477 1490 1497 1499 1502 1490 1475 1471 1474 1490 1482 1480 1480 1481 1482 1489 1491 1489 1490 1490 1491 1492 1494 1495 1496 1496 1496 1497 1497 1497 1498 1499 1499 1499 1500 1500 1500 1500 1501 1501 1502 1503 1503
1483 1487 1493 1497 1500 1496 1483 1475 1472 1490 1495 1485 1481 1482 1482 1483 1485 1488 1488 1489 1490 1491 1492 1492 1493 1493 1494 1494 1494 1494 1494 1494 1495 1495 1496 1496 1496 1496 1497 1497 1498 1498 1499 1500
1488 1493 1495 1498 1503 1501 1482 1478 1483 1488 1485 1484 1483 1483 1483 1484 1485 1486 1487 1488 1489 1489 1490 1490 1490 1491 1492 1492 1491 1491 1490 1490 1491 1491 1491 1491 1491 1492 1492 1492 1493 1494 1494 1495
1484 1486 1489 1492 1496 1488 1483 1483 1484 1484 1484 1484 1484 1485 1485 1486 1487 1487 1487 1488 1488 1488 1489 1489 1489 1489 1489 1489 1488 1487 1487 1487 1487 1487 1487 1487 1487 1487 1488 1487 1487 1488 1489 1491
1483 1481 1485 1489 1488 1485 1485 1485 1485 1485 1485 1486 1486 1485 1485 1487 1487 1488 1487 1487 1487 1488 1488 1488 1487 1487 1486 1486 1486 1485 1484 1484 1484 1483 1483 1483 1483 1483 1483 1484 1484 1484 1485 1487
1485 1484 1488 1490 1488 1486 1486 1487 1487 1486 1486 1485 1485 1485 1486 1486 1486 1487 1486 1487 1487 1487 1487 1486 1485 1485 1484 1484 1483 1483 1481 1480 1479 1479 1479 1478 1479 1479 1479 1479 1479 1480 1482 1483
1485 1487 1490 1492 1488 1488 1488 1487 1487 1487 1486 1485 1485 1485 1485 1486 1486 1485 1486 1486 1486 1486 1485 1484 1484 1483 1482 1481 1480 1479 1478 1477 1475 1474 1474 1474 1475 1475 1475 1475 1476 1477 1478 1479